Preview of NWS' New Version of Forecast
This preview is not operational and should not be used for support decisions.

Regional Weather Roundup (RWR)

Issued by National Weather Service (NWS)

                            
000
ASUS44 KMEG 221300
RWRTN 
TENNESSEE HOURLY STATE WEATHER ROUNDUP
NATIONAL WEATHER SERVICE MEMPHIS TN
800 AM CDT MON APR 22 2019

TNZ002-004-019-021-049-052-054-088>092-221400-
WEST TENNESSEE
  
CITY           SKY/WX    TMP DP  RH WIND       PRES   REMARKS
MEMPHIS INTL   FAIR      62  52  69 S8        30.16R                  
NWS MEMPHIS      N/A     61 N/A N/A MISG        N/A                   
JACKSON        FAIR      57  52  83 CALM      30.17S                  
DYERSBURG      FAIR      61  51  70 S7        30.15S                  
$$

TNZ008-025-027-028-033-062-065-066-221400-
NORTH MIDDLE TENNESSEE
  
CITY           SKY/WX    TMP DP  RH WIND       PRES   REMARKS
NASHVILLE      FAIR      55  44  66 CALM      30.23R                  
CLARKSVILLE    FAIR      55  44  66 SE3       30.19R                  
SMYRNA         FAIR      51  45  79 CALM      30.24R                  
CROSSVILLE     FAIR      55  43  63 CALM      30.25R                  
$$

TNZ061-075-076-078-094-096-097-221400-
SOUTH MIDDLE TENNESSEE
  
CITY           SKY/WX    TMP DP  RH WIND       PRES   REMARKS
$$

TNZ017-018-042-046-047-221400-
NORTHEAST TENNESSEE
  
CITY           SKY/WX    TMP DP  RH WIND       PRES   REMARKS
TRI CITIES     FOG       44  42  93 CALM      30.26R VSB 1            
$$

TNZ012-013-036-069-073-074-221400-
CENTRAL EAST TENNESSEE
  
CITY           SKY/WX    TMP DP  RH WIND       PRES   REMARKS
KNOXVILLE      FAIR      52  46  80 CALM      30.23S                  
OAK RIDGE      FAIR      52  46  80 CALM      30.26R                  
$$

TNZ083-085-099-221400-
SOUTHEAST TENNESSEE
  
CITY           SKY/WX    TMP DP  RH WIND       PRES   REMARKS
CHATTANOOGA    FAIR      51  44  77 CALM      30.25R                  
$$

SKY/WX REPORTED AS FAIR MEANS FEW OR NO CLOUDS BELOW
12 THOUSAND FEET.